Location: Redwood City
(37.4850°N, 122.2350°W)
Time: 11:23:59
(UTC-07:00)

ISS - Visible Passes

Search period start: 17 April 2014 00:00
Search period end: 27 April 2014 00:00
Orbit: 414 x 419 km, 51.6° (Epoch: 17 April)

Date Brightness Start Highest point End Pass type
(mag) Time Alt. Az. Time Alt. Az. Time Alt. Az.
17 Apr -0.4 22:24:32 10° NNW 22:25:31 16° NNW 22:25:31 16° NNW visible
18 Apr -1.2 21:36:31 10° NNW 21:39:01 19° NNE 21:39:05 19° NNE visible
19 Apr -0.8 20:48:34 10° NNW 20:50:27 14° NNE 20:52:19 10° NE visible
19 Apr -0.6 22:24:18 10° NW 22:25:32 21° NW 22:25:32 21° NW visible
20 Apr -2.4 21:36:01 10° NW 21:39:04 42° NNE 21:39:04 42° NNE visible
21 Apr -1.8 20:47:48 10° NNW 20:50:42 26° NNE 20:52:37 16° E visible
21 Apr -0.6 22:24:25 10° WNW 22:25:32 18° W 22:25:32 18° W visible
22 Apr -3.1 21:35:44 10° NW 21:39:04 62° SW 21:39:05 62° SW visible
23 Apr -3.2 20:47:13 10° NW 20:50:34 70° NE 20:52:41 21° ESE visible
24 Apr -1.2 21:36:01 10° W 21:38:29 19° SW 21:39:12 18° SSW visible
25 Apr -2.0 20:46:56 10° WNW 20:50:02 35° SW 20:52:52 12° SSE visible
